Time,TemperatureF,DewpointF,PressureIn,WindDirection,WindDirectionDegrees,WindSpeedMPH,WindSpeedGustMPH,Humidity,HourlyPrecipIn,Conditions,Clouds,dailyrainin,SoftwareType,DateUTC
2013-05-13 00:01:00,45.3,35.4,30.10,South,180,3.0,3.0,68,0.00,,,0.00,meteohub,2013-05-13 04:01:00,
2013-05-13 00:06:00,45.3,35.4,30.11,South,180,3.0,3.0,68,0.00,,,0.00,meteohub,2013-05-13 04:06:00,
2013-05-13 00:11:00,44.4,35.6,30.11,SW,225,2.0,4.0,71,0.00,,,0.00,meteohub,2013-05-13 04:11:00,
2013-05-13 00:16:00,44.2,35.8,30.10,SW,225,2.0,4.0,72,0.00,,,0.00,meteohub,2013-05-13 04:16:00,
2013-05-13 00:21:00,43.9,35.4,30.11,South,180,2.0,4.0,72,0.00,,,0.00,meteohub,2013-05-13 04:21:00,
2013-05-13 00:26:00,43.9,35.8,30.11,West,270,2.0,3.0,73,0.00,,,0.00,meteohub,2013-05-13 04:26:00,
2013-05-13 00:31:00,43.7,35.6,30.11,West,270,2.0,3.0,73,0.00,,,0.00,meteohub,2013-05-13 04:31:00,
2013-05-13 00:36:00,43.7,35.6,30.10,South,180,1.0,3.0,73,0.00,,,0.00,meteohub,2013-05-13 04:36:00,
2013-05-13 00:41:00,43.5,35.4,30.10,West,270,2.0,3.0,73,0.00,,,0.00,meteohub,2013-05-13 04:41:00,
2013-05-13 00:46:00,43.3,35.2,30.11,SW,225,2.0,3.0,73,0.00,,,0.00,meteohub,2013-05-13 04:46:00,
2013-05-13 00:51:00,43.5,35.4,30.10,West,270,2.0,3.0,73,0.00,,,0.00,meteohub,2013-05-13 04:51:00,
2013-05-13 00:56:00,43.7,35.6,30.11,NW,315,2.0,3.0,73,0.00,,,0.00,meteohub,2013-05-13 04:56:00,
2013-05-13 01:01:00,43.7,35.6,30.11,South,180,2.0,3.0,73,0.00,,,0.00,meteohub,2013-05-13 05:01:00,
2013-05-13 01:06:00,43.5,35.4,30.10,West,270,1.0,3.0,73,0.00,,,0.00,meteohub,2013-05-13 05:06:00,
2013-05-13 01:11:00,43.3,35.2,30.11,North,0,2.0,2.0,73,0.00,,,0.00,meteohub,2013-05-13 05:11:00,
2013-05-13 01:16:00,43.0,35.2,30.11,SW,225,1.0,2.0,74,0.00,,,0.00,meteohub,2013-05-13 05:16:00,
2013-05-13 01:22:00,42.4,35.1,30.11,South,180,2.0,2.0,75,0.00,,,0.00,meteohub,2013-05-13 05:22:00,
2013-05-13 01:27:00,42.1,35.4,30.12,NW,315,2.0,2.0,77,0.00,,,0.00,meteohub,2013-05-13 05:27:00,
2013-05-13 01:32:00,41.7,35.4,30.12,North,0,2.0,2.0,78,0.00,,,0.00,meteohub,2013-05-13 05:32:00,
2013-05-13 01:37:00,42.1,35.8,30.12,South,180,2.0,3.0,78,0.00,,,0.00,meteohub,2013-05-13 05:37:00,
2013-05-13 01:42:00,42.4,35.8,30.11,NE,45,4.0,4.0,77,0.00,,,0.00,meteohub,2013-05-13 05:42:00,
2013-05-13 01:47:00,43.9,35.4,30.11,SE,135,4.0,4.0,72,0.00,,,0.00,meteohub,2013-05-13 05:47:00,
2013-05-13 01:51:00,46.4,35.2,30.11,East,90,4.0,6.0,65,0.00,,,0.00,meteohub,2013-05-13 05:51:00,
2013-05-13 01:56:00,46.6,35.4,30.11,South,180,4.0,6.0,65,0.00,,,0.00,meteohub,2013-05-13 05:56:00,
2013-05-13 02:02:00,46.8,34.9,30.11,South,180,8.0,8.0,63,0.00,,,0.00,meteohub,2013-05-13 06:02:00,
2013-05-13 02:07:00,46.8,34.9,30.11,South,180,8.0,8.0,63,0.00,,,0.00,meteohub,2013-05-13 06:07:00,
2013-05-13 02:12:00,47.5,33.8,30.11,NW,315,3.0,8.0,59,0.00,,,0.00,meteohub,2013-05-13 06:12:00,
2013-05-13 02:17:00,47.8,34.2,30.11,SE,135,4.0,8.0,59,0.00,,,0.00,meteohub,2013-05-13 06:17:00,
2013-05-13 02:22:00,47.8,34.2,30.11,NW,315,4.0,8.0,59,0.00,,,0.00,meteohub,2013-05-13 06:22:00,
2013-05-13 02:27:00,47.8,33.8,30.11,South,180,4.0,4.0,58,0.00,,,0.00,meteohub,2013-05-13 06:27:00,
2013-05-13 02:32:00,48.2,33.6,30.11,SW,225,4.0,6.0,57,0.00,,,0.00,meteohub,2013-05-13 06:32:00,
2013-05-13 02:36:00,48.0,34.0,30.11,North,0,3.0,6.0,58,0.00,,,0.00,meteohub,2013-05-13 06:36:00,
2013-05-13 02:41:00,47.5,34.3,30.11,SE,135,2.0,6.0,60,0.00,,,0.00,meteohub,2013-05-13 06:41:00,
2013-05-13 02:46:00,47.1,34.0,30.11,South,180,2.0,6.0,60,0.00,,,0.00,meteohub,2013-05-13 06:46:00,
2013-05-13 02:51:00,47.1,34.0,30.11,North,0,6.0,6.0,60,0.00,,,0.00,meteohub,2013-05-13 06:51:00,
2013-05-13 02:56:00,46.9,33.8,30.10,North,0,7.0,7.0,60,0.00,,,0.00,meteohub,2013-05-13 06:56:00,
2013-05-13 03:01:00,46.9,33.4,30.10,South,180,4.0,7.0,59,0.00,,,0.00,meteohub,2013-05-13 07:01:00,
2013-05-13 03:06:00,47.3,33.3,30.11,SW,225,6.0,8.0,58,0.00,,,0.00,meteohub,2013-05-13 07:06:00,
2013-05-13 03:11:00,47.5,33.1,30.11,SE,135,2.0,8.0,57,0.00,,,0.00,meteohub,2013-05-13 07:11:00,
2013-05-13 03:16:00,47.5,33.1,30.10,NE,45,4.0,8.0,57,0.00,,,0.00,meteohub,2013-05-13 07:16:00,
2013-05-13 03:21:00,47.5,33.1,30.10,North,0,6.0,6.0,57,0.00,,,0.00,meteohub,2013-05-13 07:21:00,
2013-05-13 03:26:00,47.7,32.4,30.10,NE,45,3.0,14.0,55,0.00,,,0.00,meteohub,2013-05-13 07:26:00,
2013-05-13 03:31:00,47.8,32.5,30.10,South,180,2.0,14.0,55,0.00,,,0.00,meteohub,2013-05-13 07:31:00,
2013-05-13 03:36:00,47.7,32.7,30.11,West,270,4.0,14.0,56,0.00,,,0.00,meteohub,2013-05-13 07:36:00,
2013-05-13 03:41:00,47.3,32.4,30.11,North,0,4.0,8.0,56,0.00,,,0.00,meteohub,2013-05-13 07:41:00,
2013-05-13 03:46:00,47.3,32.9,30.10,North,0,6.0,8.0,57,0.00,,,0.00,meteohub,2013-05-13 07:46:00,
2013-05-13 03:51:00,46.8,32.7,30.11,SE,135,4.0,8.0,58,0.00,,,0.00,meteohub,2013-05-13 07:51:00,
2013-05-13 03:56:00,46.0,32.5,30.11,North,0,6.0,8.0,59,0.00,,,0.00,meteohub,2013-05-13 07:56:00,
2013-05-13 04:02:00,46.0,32.9,30.11,SW,225,2.0,8.0,60,0.00,,,0.00,meteohub,2013-05-13 08:02:00,
2013-05-13 04:07:00,46.0,32.9,30.11,SW,225,2.0,6.0,60,0.00,,,0.00,meteohub,2013-05-13 08:07:00,
2013-05-13 04:12:00,45.3,32.7,30.11,North,0,4.0,6.0,61,0.00,,,0.00,meteohub,2013-05-13 08:12:00,
2013-05-13 04:17:00,45.1,32.5,30.11,West,270,1.0,5.0,61,0.00,,,0.00,meteohub,2013-05-13 08:17:00,
2013-05-13 04:22:00,45.0,32.7,30.12,NW,315,2.0,5.0,62,0.00,,,0.00,meteohub,2013-05-13 08:22:00,
2013-05-13 04:27:00,44.4,33.4,30.12,SW,225,2.0,5.0,65,0.00,,,0.00,meteohub,2013-05-13 08:27:00,
2013-05-13 04:32:00,43.7,33.1,30.12,South,180,2.0,3.0,66,0.00,,,0.00,meteohub,2013-05-13 08:32:00,
2013-05-13 04:37:00,43.0,33.1,30.12,West,270,1.0,3.0,68,0.00,,,0.00,meteohub,2013-05-13 08:37:00,
2013-05-13 04:41:00,42.4,33.4,30.12,South,180,2.0,2.0,70,0.00,,,0.00,meteohub,2013-05-13 08:41:00,
2013-05-13 04:46:00,42.1,33.8,30.12,SW,225,4.0,4.0,72,0.00,,,0.00,meteohub,2013-05-13 08:46:00,
2013-05-13 04:51:00,41.7,33.6,30.12,South,180,2.0,4.0,73,0.00,,,0.00,meteohub,2013-05-13 08:51:00,
2013-05-13 04:56:00,41.7,33.6,30.12,SE,135,2.0,4.0,73,0.00,,,0.00,meteohub,2013-05-13 08:56:00,
2013-05-13 05:01:00,41.9,33.8,30.12,South,180,2.0,4.0,73,0.00,,,0.00,meteohub,2013-05-13 09:01:00,
2013-05-13 05:06:00,41.7,33.6,30.12,SW,225,2.0,3.0,73,0.00,,,0.00,meteohub,2013-05-13 09:06:00,
2013-05-13 05:11:00,41.4,33.6,30.12,West,270,0.0,3.0,74,0.00,,,0.00,meteohub,2013-05-13 09:11:00,
2013-05-13 05:16:00,41.0,33.4,30.12,West,270,2.0,3.0,74,0.00,,,0.00,meteohub,2013-05-13 09:16:00,
2013-05-13 05:21:00,40.6,33.6,30.12,SW,225,1.0,3.0,76,0.00,,,0.00,meteohub,2013-05-13 09:21:00,
2013-05-13 05:26:00,40.5,33.4,30.12,South,180,2.0,4.0,76,0.00,,,0.00,meteohub,2013-05-13 09:26:00,
2013-05-13 05:31:00,40.1,33.4,30.13,South,180,1.0,4.0,77,0.00,,,0.00,meteohub,2013-05-13 09:31:00,
2013-05-13 05:36:00,39.7,33.4,30.12,South,180,2.0,2.0,78,0.00,,,0.00,meteohub,2013-05-13 09:36:00,
2013-05-13 05:41:00,39.4,33.4,30.13,South,180,3.0,3.0,79,0.00,,,0.00,meteohub,2013-05-13 09:41:00,
2013-05-13 05:46:00,39.0,33.6,30.13,North,0,2.0,3.0,81,0.00,,,0.00,meteohub,2013-05-13 09:46:00,
2013-05-13 05:51:00,39.0,33.6,30.13,West,270,1.0,3.0,81,0.00,,,0.00,meteohub,2013-05-13 09:51:00,
2013-05-13 05:56:00,38.8,33.4,30.13,South,180,2.0,3.0,81,0.00,,,0.00,meteohub,2013-05-13 09:56:00,
2013-05-13 06:01:00,38.8,33.8,30.13,South,180,2.0,2.0,82,0.00,,,0.00,meteohub,2013-05-13 10:01:00,
2013-05-13 06:06:00,38.8,33.8,30.13,South,180,2.0,2.0,82,0.00,,,0.00,meteohub,2013-05-13 10:06:00,
2013-05-13 06:11:00,38.8,34.2,30.14,North,0,1.0,2.0,83,0.00,,,0.00,meteohub,2013-05-13 10:11:00,
2013-05-13 06:16:00,39.0,34.3,30.14,South,180,3.0,3.0,83,0.00,,,0.00,meteohub,2013-05-13 10:16:00,
2013-05-13 06:21:00,39.4,34.7,30.13,NW,315,2.0,3.0,83,0.00,,,0.00,meteohub,2013-05-13 10:21:00,
2013-05-13 06:26:00,39.7,34.7,30.14,South,180,1.0,3.0,82,0.00,,,0.00,meteohub,2013-05-13 10:26:00,
2013-05-13 06:31:00,39.9,35.2,30.14,NE,45,1.0,3.0,83,0.00,,,0.00,meteohub,2013-05-13 10:31:00,
2013-05-13 06:36:00,40.3,35.8,30.14,NW,315,1.0,2.0,84,0.00,,,0.00,meteohub,2013-05-13 10:36:00,
2013-05-13 06:42:00,40.6,36.1,30.15,NE,45,2.0,2.0,84,0.00,,,0.00,meteohub,2013-05-13 10:42:00,
2013-05-13 06:46:00,41.0,36.3,30.15,NW,315,2.0,2.0,83,0.00,,,0.00,meteohub,2013-05-13 10:46:00,
2013-05-13 06:51:00,41.4,36.5,30.15,South,180,2.0,2.0,83,0.00,,,0.00,meteohub,2013-05-13 10:51:00,
2013-05-13 06:56:00,41.7,36.9,30.15,South,180,2.0,2.0,83,0.00,,,0.00,meteohub,2013-05-13 10:56:00,
2013-05-13 07:01:00,42.1,37.2,30.16,NE,45,1.0,2.0,83,0.00,,,0.00,meteohub,2013-05-13 11:01:00,
2013-05-13 07:06:00,42.3,37.2,30.16,SW,225,2.0,2.0,82,0.00,,,0.00,meteohub,2013-05-13 11:06:00,
2013-05-13 07:11:00,42.4,36.7,30.16,NE,45,2.0,2.0,80,0.00,,,0.00,meteohub,2013-05-13 11:11:00,
2013-05-13 07:16:00,42.6,36.9,30.16,NE,45,2.0,3.0,80,0.00,,,0.00,meteohub,2013-05-13 11:16:00,
2013-05-13 07:21:00,43.0,36.9,30.17,NE,45,1.0,3.0,79,0.00,,,0.00,meteohub,2013-05-13 11:21:00,
2013-05-13 07:26:00,43.2,37.0,30.16,East,90,1.0,3.0,79,0.00,,,0.00,meteohub,2013-05-13 11:26:00,
2013-05-13 07:31:00,43.2,37.0,30.16,North,0,2.0,2.0,79,0.00,,,0.00,meteohub,2013-05-13 11:31:00,
2013-05-13 07:36:00,43.3,37.2,30.17,NE,45,2.0,2.0,79,0.00,,,0.00,meteohub,2013-05-13 11:36:00,
2013-05-13 07:41:00,43.5,37.4,30.17,NE,45,2.0,2.0,79,0.00,,,0.00,meteohub,2013-05-13 11:41:00,
2013-05-13 07:46:00,43.5,37.8,30.17,NW,315,1.0,2.0,80,0.00,,,0.00,meteohub,2013-05-13 11:46:00,
2013-05-13 07:51:00,43.5,37.8,30.17,NW,315,1.0,2.0,80,0.00,,,0.00,meteohub,2013-05-13 11:51:00,
2013-05-13 07:56:00,43.7,38.3,30.17,South,180,2.0,2.0,81,0.00,,,0.00,meteohub,2013-05-13 11:56:00,
2013-05-13 08:01:00,43.9,38.7,30.17,North,0,2.0,2.0,82,0.00,,,0.00,meteohub,2013-05-13 12:01:00,
2013-05-13 08:06:00,43.9,38.7,30.17,North,0,2.0,2.0,82,0.00,,,0.00,meteohub,2013-05-13 12:06:00,
2013-05-13 08:11:00,44.2,38.8,30.17,NE,45,2.0,2.0,81,0.00,,,0.00,meteohub,2013-05-13 12:11:00,
2013-05-13 08:16:00,44.4,39.0,30.17,NE,45,2.0,2.0,81,0.00,,,0.00,meteohub,2013-05-13 12:16:00,
2013-05-13 08:21:00,44.6,39.2,30.17,NE,45,1.0,2.0,81,0.00,,,0.00,meteohub,2013-05-13 12:21:00,
2013-05-13 08:26:00,44.8,39.4,30.18,NE,45,2.0,2.0,81,0.00,,,0.00,meteohub,2013-05-13 12:26:00,
2013-05-13 08:31:00,45.1,39.7,30.18,NE,45,3.0,3.0,81,0.00,,,0.00,meteohub,2013-05-13 12:31:00,
2013-05-13 08:36:00,45.5,40.1,30.19,NE,45,1.0,3.0,81,0.00,,,0.00,meteohub,2013-05-13 12:36:00,
2013-05-13 08:41:00,45.9,40.3,30.19,NE,45,2.0,3.0,81,0.00,,,0.00,meteohub,2013-05-13 12:41:00,
2013-05-13 08:46:00,47.3,41.4,30.19,NE,45,2.0,3.0,80,0.00,,,0.00,meteohub,2013-05-13 12:46:00,
2013-05-13 08:51:00,49.6,42.8,30.18,SW,225,2.0,3.0,77,0.00,,,0.00,meteohub,2013-05-13 12:51:00,
2013-05-13 08:56:00,52.0,42.1,30.19,South,180,2.0,3.0,69,0.00,,,0.00,meteohub,2013-05-13 12:56:00,
2013-05-13 09:01:00,53.1,40.8,30.19,East,90,3.0,3.0,63,0.00,,,0.00,meteohub,2013-05-13 13:01:00,
2013-05-13 09:06:00,53.2,38.8,30.19,NE,45,2.0,6.0,58,0.00,,,0.00,meteohub,2013-05-13 13:06:00,
2013-05-13 09:11:00,53.8,38.8,30.19,West,270,4.0,6.0,57,0.00,,,0.00,meteohub,2013-05-13 13:11:00,
2013-05-13 09:16:00,54.5,39.2,30.19,South,180,6.0,6.0,56,0.00,,,0.00,meteohub,2013-05-13 13:16:00,
2013-05-13 09:21:00,55.0,38.7,30.18,West,270,4.0,6.0,54,0.00,,,0.00,meteohub,2013-05-13 13:21:00,
2013-05-13 09:26:00,55.4,39.6,30.19,SE,135,2.0,6.0,55,0.00,,,0.00,meteohub,2013-05-13 13:26:00,
2013-05-13 09:31:00,55.9,39.9,30.19,SW,225,4.0,6.0,55,0.00,,,0.00,meteohub,2013-05-13 13:31:00,
2013-05-13 09:36:00,55.9,38.5,30.18,NE,45,2.0,5.0,52,0.00,,,0.00,meteohub,2013-05-13 13:36:00,
2013-05-13 09:41:00,57.0,40.1,30.18,West,270,3.0,4.0,53,0.00,,,0.00,meteohub,2013-05-13 13:41:00,
2013-05-13 09:46:00,57.6,38.5,30.19,East,90,5.0,5.0,49,0.00,,,0.00,meteohub,2013-05-13 13:46:00,
2013-05-13 09:51:00,56.8,36.9,30.19,SE,135,4.0,5.0,47,0.00,,,0.00,meteohub,2013-05-13 13:51:00,
2013-05-13 09:56:00,56.8,36.3,30.19,East,90,7.0,7.0,46,0.00,,,0.00,meteohub,2013-05-13 13:56:00,
2013-05-13 10:01:00,57.4,37.4,30.18,NE,45,4.0,7.0,47,0.00,,,0.00,meteohub,2013-05-13 14:01:00,
2013-05-13 10:06:00,57.6,36.3,30.18,NE,45,4.0,7.0,45,0.00,,,0.00,meteohub,2013-05-13 14:06:00,
2013-05-13 10:11:00,57.6,36.3,30.18,NE,45,6.0,7.0,45,0.00,,,0.00,meteohub,2013-05-13 14:11:00,
2013-05-13 10:16:00,58.3,37.6,30.18,West,270,4.0,7.0,46,0.00,,,0.00,meteohub,2013-05-13 14:16:00,
2013-05-13 10:21:00,58.5,37.8,30.18,SW,225,3.0,7.0,46,0.00,,,0.00,meteohub,2013-05-13 14:21:00,
2013-05-13 10:26:00,58.8,37.6,30.18,SE,135,5.0,6.0,45,0.00,,,0.00,meteohub,2013-05-13 14:26:00,
2013-05-13 10:31:00,58.5,36.7,30.18,SW,225,3.0,8.0,44,0.00,,,0.00,meteohub,2013-05-13 14:31:00,
2013-05-13 10:36:00,57.9,36.1,30.18,ENE,68,5.0,8.0,44,0.00,,,0.00,meteohub,2013-05-13 14:36:00,
2013-05-13 10:41:00,57.7,32.4,30.18,NW,315,7.0,11.0,38,0.00,,,0.00,meteohub,2013-05-13 14:41:00,
2013-05-13 10:46:00,57.7,33.6,30.18,North,0,7.0,11.0,40,0.00,,,0.00,meteohub,2013-05-13 14:46:00,
2013-05-13 10:51:00,57.9,33.1,30.18,South,180,4.0,11.0,39,0.00,,,0.00,meteohub,2013-05-13 14:51:00,
2013-05-13 10:56:00,57.2,32.5,30.18,NW,315,4.0,8.0,39,0.00,,,0.00,meteohub,2013-05-13 14:56:00,
2013-05-13 11:01:00,56.8,30.2,30.18,SW,225,3.0,13.0,36,0.00,,,0.00,meteohub,2013-05-13 15:01:00,
2013-05-13 11:06:00,56.7,32.0,30.18,NNE,23,2.0,13.0,39,0.00,,,0.00,meteohub,2013-05-13 15:06:00,
2013-05-13 11:11:00,56.3,30.4,30.18,NE,45,3.0,13.0,37,0.00,,,0.00,meteohub,2013-05-13 15:11:00,
2013-05-13 11:16:00,56.3,31.6,30.18,NW,315,2.0,8.0,39,0.00,,,0.00,meteohub,2013-05-13 15:16:00,
2013-05-13 11:21:00,56.8,31.5,30.18,South,180,6.0,8.0,38,0.00,,,0.00,meteohub,2013-05-13 15:21:00,
2013-05-13 11:26:00,56.7,29.3,30.18,SE,135,1.0,8.0,35,0.00,,,0.00,meteohub,2013-05-13 15:26:00,
2013-05-13 11:31:00,58.1,31.3,30.17,North,0,2.0,8.0,36,0.00,,,0.00,meteohub,2013-05-13 15:31:00,
2013-05-13 11:36:00,59.9,32.9,30.18,South,180,7.0,8.0,36,0.00,,,0.00,meteohub,2013-05-13 15:36:00,
2013-05-13 11:41:00,60.3,31.1,30.18,South,180,8.0,12.0,33,0.00,,,0.00,meteohub,2013-05-13 15:41:00,
2013-05-13 11:46:00,59.9,30.7,30.18,North,0,11.0,12.0,33,0.00,,,0.00,meteohub,2013-05-13 15:46:00,
2013-05-13 11:51:00,59.2,27.7,30.17,East,90,5.0,12.0,30,0.00,,,0.00,meteohub,2013-05-13 15:51:00,
2013-05-13 11:56:00,58.5,28.8,30.18,NE,45,5.0,11.0,32,0.00,,,0.00,meteohub,2013-05-13 15:56:00,
2013-05-13 12:01:00,58.8,29.8,30.17,NW,315,4.0,11.0,33,0.00,,,0.00,meteohub,2013-05-13 16:01:00,
2013-05-13 12:06:00,59.0,30.0,30.17,East,90,3.0,8.0,33,0.00,,,0.00,meteohub,2013-05-13 16:06:00,
2013-05-13 12:11:00,59.9,32.9,30.17,West,270,4.0,10.0,36,0.00,,,0.00,meteohub,2013-05-13 16:11:00,
2013-05-13 12:16:00,60.3,31.8,30.17,East,90,6.0,10.0,34,0.00,,,0.00,meteohub,2013-05-13 16:16:00,
2013-05-13 12:21:00,60.3,31.8,30.17,East,90,6.0,10.0,34,0.00,,,0.00,meteohub,2013-05-13 16:21:00,
2013-05-13 12:26:00,60.1,28.6,30.17,SW,225,5.0,9.0,30,0.00,,,0.00,meteohub,2013-05-13 16:26:00,
2013-05-13 12:31:00,58.5,30.2,30.17,NW,315,9.0,9.0,34,0.00,,,0.00,meteohub,2013-05-13 16:31:00,
2013-05-13 12:36:00,57.7,30.2,30.17,East,90,8.0,9.0,35,0.00,,,0.00,meteohub,2013-05-13 16:36:00,
2013-05-13 12:41:00,57.6,30.7,30.18,East,90,8.0,9.0,36,0.00,,,0.00,meteohub,2013-05-13 16:41:00,
2013-05-13 12:46:00,58.5,32.4,30.17,South,180,7.0,11.0,37,0.00,,,0.00,meteohub,2013-05-13 16:46:00,
2013-05-13 12:51:00,59.5,31.8,30.16,NW,315,6.0,11.0,35,0.00,,,0.00,meteohub,2013-05-13 16:51:00,
2013-05-13 12:56:00,60.3,32.5,30.15,North,0,7.0,11.0,35,0.00,,,0.00,meteohub,2013-05-13 16:56:00,
2013-05-13 13:01:00,60.3,31.1,30.16,South,180,3.0,17.0,33,0.00,,,0.00,meteohub,2013-05-13 17:01:00,
2013-05-13 13:06:00,59.7,28.2,30.15,East,90,3.0,17.0,30,0.00,,,0.00,meteohub,2013-05-13 17:06:00,
2013-05-13 13:11:00,59.5,29.7,30.15,WNW,293,7.0,17.0,32,0.00,,,0.00,meteohub,2013-05-13 17:11:00,
2013-05-13 13:16:00,60.3,31.1,30.16,East,90,8.0,8.0,33,0.00,,,0.00,meteohub,2013-05-13 17:16:00,
2013-05-13 13:21:00,61.2,36.0,30.15,North,0,6.0,8.0,39,0.00,,,0.00,meteohub,2013-05-13 17:21:00,
2013-05-13 13:26:00,62.4,32.2,30.15,North,0,5.0,8.0,32,0.00,,,0.00,meteohub,2013-05-13 17:26:00,
2013-05-13 13:31:00,63.3,33.8,30.15,NE,45,7.0,8.0,33,0.00,,,0.00,meteohub,2013-05-13 17:31:00,
2013-05-13 13:36:00,62.8,27.3,30.15,South,180,2.0,11.0,26,0.00,,,0.00,meteohub,2013-05-13 17:36:00,
2013-05-13 13:41:00,61.3,27.9,30.14,NE,45,6.0,11.0,28,0.00,,,0.00,meteohub,2013-05-13 17:41:00,
2013-05-13 13:46:00,61.0,30.9,30.14,South,180,4.0,11.0,32,0.00,,,0.00,meteohub,2013-05-13 17:46:00,
2013-05-13 13:51:00,60.1,27.7,30.14,North,0,8.0,10.0,29,0.00,,,0.00,meteohub,2013-05-13 17:51:00,
2013-05-13 13:56:00,59.2,25.2,30.15,South,180,5.0,14.0,27,0.00,,,0.00,meteohub,2013-05-13 17:56:00,
2013-05-13 14:01:00,59.0,26.8,30.14,North,0,8.0,14.0,29,0.00,,,0.00,meteohub,2013-05-13 18:01:00,
2013-05-13 14:06:00,59.0,26.8,30.14,North,0,8.0,14.0,29,0.00,,,0.00,meteohub,2013-05-13 18:06:00,
2013-05-13 14:11:00,59.7,30.6,30.14,North,0,6.0,11.0,33,0.00,,,0.00,meteohub,2013-05-13 18:11:00,
2013-05-13 14:16:00,61.0,31.6,30.14,North,0,4.0,8.0,33,0.00,,,0.00,meteohub,2013-05-13 18:16:00,
2013-05-13 14:21:00,62.2,32.0,30.14,SW,225,19.0,19.0,32,0.00,,,0.00,meteohub,2013-05-13 18:21:00,
2013-05-13 14:26:00,62.4,31.5,30.14,North,0,2.0,19.0,31,0.00,,,0.00,meteohub,2013-05-13 18:26:00,
2013-05-13 14:31:00,63.5,33.1,30.13,SW,225,2.0,19.0,32,0.00,,,0.00,meteohub,2013-05-13 18:31:00,
2013-05-13 14:36:00,64.0,34.3,30.13,North,0,6.0,19.0,33,0.00,,,0.00,meteohub,2013-05-13 18:36:00,
2013-05-13 14:41:00,63.0,30.2,30.13,SE,135,13.0,14.0,29,0.00,,,0.00,meteohub,2013-05-13 18:41:00,
2013-05-13 14:46:00,61.3,30.4,30.13,South,180,11.0,14.0,31,0.00,,,0.00,meteohub,2013-05-13 18:46:00,
2013-05-13 14:51:00,61.2,28.6,30.12,South,180,8.0,14.0,29,0.00,,,0.00,meteohub,2013-05-13 18:51:00,
2013-05-13 14:56:00,62.1,30.2,30.12,WSW,248,4.0,14.0,30,0.00,,,0.00,meteohub,2013-05-13 18:56:00,
2013-05-13 15:01:00,61.5,27.1,30.12,South,180,4.0,11.0,27,0.00,,,0.00,meteohub,2013-05-13 19:01:00,
2013-05-13 15:06:00,60.4,29.7,30.12,NE,45,4.0,8.0,31,0.00,,,0.00,meteohub,2013-05-13 19:06:00,
2013-05-13 15:11:00,59.7,27.3,30.12,North,0,4.0,9.0,29,0.00,,,0.00,meteohub,2013-05-13 19:11:00,
2013-05-13 15:16:00,59.7,27.3,30.12,North,0,8.0,9.0,29,0.00,,,0.00,meteohub,2013-05-13 19:16:00,
2013-05-13 15:21:00,59.7,27.3,30.12,East,90,4.0,11.0,29,0.00,,,0.00,meteohub,2013-05-13 19:21:00,
2013-05-13 15:26:00,59.7,27.3,30.12,East,90,4.0,13.0,29,0.00,,,0.00,meteohub,2013-05-13 19:26:00,
2013-05-13 15:31:00,61.0,31.6,30.12,North,0,10.0,13.0,33,0.00,,,0.00,meteohub,2013-05-13 19:31:00,
2013-05-13 15:36:00,61.7,30.7,30.11,NW,315,8.0,13.0,31,0.00,,,0.00,meteohub,2013-05-13 19:36:00,
2013-05-13 15:41:00,61.0,26.8,30.11,NE,45,7.0,11.0,27,0.00,,,0.00,meteohub,2013-05-13 19:41:00,
2013-05-13 15:46:00,60.8,27.5,30.11,NE,45,8.0,14.0,28,0.00,,,0.00,meteohub,2013-05-13 19:46:00,
2013-05-13 15:51:00,60.3,28.8,30.11,NE,45,4.0,14.0,30,0.00,,,0.00,meteohub,2013-05-13 19:51:00,
2013-05-13 15:56:00,61.5,29.8,30.11,SE,135,5.0,14.0,30,0.00,,,0.00,meteohub,2013-05-13 19:56:00,
2013-05-13 16:01:00,62.4,32.2,30.10,NE,45,6.0,9.0,32,0.00,,,0.00,meteohub,2013-05-13 20:01:00,
2013-05-13 16:06:00,62.4,32.2,30.10,NE,45,6.0,9.0,32,0.00,,,0.00,meteohub,2013-05-13 20:06:00,
2013-05-13 16:11:00,62.8,28.2,30.10,SE,135,11.0,11.0,27,0.00,,,0.00,meteohub,2013-05-13 20:11:00,
2013-05-13 16:16:00,62.1,27.7,30.10,North,0,8.0,11.0,27,0.00,,,0.00,meteohub,2013-05-13 20:16:00,
2013-05-13 16:21:00,61.7,27.3,30.11,South,180,6.0,11.0,27,0.00,,,0.00,meteohub,2013-05-13 20:21:00,
2013-05-13 16:26:00,61.9,25.7,30.10,SW,225,11.0,11.0,25,0.00,,,0.00,meteohub,2013-05-13 20:26:00,
2013-05-13 16:31:00,61.0,25.0,30.09,NE,45,12.0,18.0,25,0.00,,,0.00,meteohub,2013-05-13 20:31:00,
2013-05-13 16:36:00,61.5,25.3,30.10,NE,45,8.0,18.0,25,0.00,,,0.00,meteohub,2013-05-13 20:36:00,
2013-05-13 16:41:00,62.1,25.9,30.10,North,0,8.0,18.0,25,0.00,,,0.00,meteohub,2013-05-13 20:41:00,
2013-05-13 16:46:00,62.1,26.8,30.10,North,0,4.0,14.0,26,0.00,,,0.00,meteohub,2013-05-13 20:46:00,
2013-05-13 16:51:00,61.5,26.2,30.10,North,0,5.0,14.0,26,0.00,,,0.00,meteohub,2013-05-13 20:51:00,
2013-05-13 16:56:00,61.5,25.3,30.11,NW,315,13.0,13.0,25,0.00,,,0.00,meteohub,2013-05-13 20:56:00,
2013-05-13 17:01:00,60.3,25.2,30.11,SSE,158,3.0,13.0,26,0.00,,,0.00,meteohub,2013-05-13 21:01:00,
2013-05-13 17:06:00,60.3,27.0,30.11,NE,45,9.0,13.0,28,0.00,,,0.00,meteohub,2013-05-13 21:06:00,
2013-05-13 17:11:00,60.3,27.0,30.11,NNW,338,8.0,13.0,28,0.00,,,0.00,meteohub,2013-05-13 21:11:00,
2013-05-13 17:16:00,59.5,28.9,30.11,South,180,11.0,11.0,31,0.00,,,0.00,meteohub,2013-05-13 21:16:00,
2013-05-13 17:21:00,59.0,26.8,30.11,NE,45,4.0,11.0,29,0.00,,,0.00,meteohub,2013-05-13 21:21:00,
2013-05-13 17:26:00,59.0,25.9,30.11,North,0,3.0,17.0,28,0.00,,,0.00,meteohub,2013-05-13 21:26:00,
2013-05-13 17:31:00,58.8,26.6,30.11,North,0,10.0,17.0,29,0.00,,,0.00,meteohub,2013-05-13 21:31:00,
2013-05-13 17:36:00,58.3,27.0,30.11,WNW,293,12.0,17.0,30,0.00,,,0.00,meteohub,2013-05-13 21:36:00,
2013-05-13 17:41:00,58.3,26.2,30.11,NW,315,12.0,17.0,29,0.00,,,0.00,meteohub,2013-05-13 21:41:00,
2013-05-13 17:46:00,58.1,26.8,30.11,WNW,293,9.0,12.0,30,0.00,,,0.00,meteohub,2013-05-13 21:46:00,
2013-05-13 17:51:00,58.5,28.8,30.11,North,0,11.0,12.0,32,0.00,,,0.00,meteohub,2013-05-13 21:51:00,
2013-05-13 17:56:00,58.6,28.0,30.10,South,180,4.0,12.0,31,0.00,,,0.00,meteohub,2013-05-13 21:56:00,
2013-05-13 18:01:00,59.0,29.1,30.10,SE,135,8.0,11.0,32,0.00,,,0.00,meteohub,2013-05-13 22:01:00,
2013-05-13 18:06:00,59.0,29.1,30.10,SE,135,8.0,11.0,32,0.00,,,0.00,meteohub,2013-05-13 22:06:00,
2013-05-13 18:11:00,58.6,27.3,30.10,NE,45,4.0,8.0,30,0.00,,,0.00,meteohub,2013-05-13 22:11:00,
2013-05-13 18:16:00,58.8,28.2,30.10,South,180,11.0,11.0,31,0.00,,,0.00,meteohub,2013-05-13 22:16:00,
2013-05-13 18:21:00,58.6,26.4,30.10,North,0,8.0,11.0,29,0.00,,,0.00,meteohub,2013-05-13 22:21:00,
2013-05-13 18:26:00,58.5,26.2,30.10,NE,45,5.0,11.0,29,0.00,,,0.00,meteohub,2013-05-13 22:26:00,
2013-05-13 18:31:00,58.3,27.0,30.10,NE,45,6.0,11.0,30,0.00,,,0.00,meteohub,2013-05-13 22:31:00,
2013-05-13 18:36:00,58.1,26.8,30.10,North,0,5.0,9.0,30,0.00,,,0.00,meteohub,2013-05-13 22:36:00,
2013-05-13 18:41:00,57.6,28.6,30.11,NNW,338,2.0,7.0,33,0.00,,,0.00,meteohub,2013-05-13 22:41:00,
2013-05-13 18:46:00,57.4,29.3,30.11,East,90,8.0,8.0,34,0.00,,,0.00,meteohub,2013-05-13 22:46:00,
2013-05-13 18:51:00,57.2,29.1,30.11,North,0,9.0,10.0,34,0.00,,,0.00,meteohub,2013-05-13 22:51:00,
2013-05-13 18:56:00,57.0,29.7,30.11,NE,45,4.0,10.0,35,0.00,,,0.00,meteohub,2013-05-13 22:56:00,
2013-05-13 19:01:00,57.0,29.7,30.11,NE,45,6.0,10.0,35,0.00,,,0.00,meteohub,2013-05-13 23:01:00,
2013-05-13 19:06:00,56.8,29.5,30.11,North,0,8.0,9.0,35,0.00,,,0.00,meteohub,2013-05-13 23:06:00,
2013-05-13 19:11:00,56.8,29.5,30.12,North,0,8.0,8.0,35,0.00,,,0.00,meteohub,2013-05-13 23:11:00,
2013-05-13 19:16:00,56.3,28.9,30.12,North,0,7.0,8.0,35,0.00,,,0.00,meteohub,2013-05-13 23:16:00,
2013-05-13 19:21:00,56.1,28.8,30.12,North,0,12.0,15.0,35,0.00,,,0.00,meteohub,2013-05-13 23:21:00,
2013-05-13 19:26:00,55.9,29.3,30.12,SE,135,4.0,15.0,36,0.00,,,0.00,meteohub,2013-05-13 23:26:00,
2013-05-13 19:31:00,55.8,29.1,30.12,NE,45,5.0,15.0,36,0.00,,,0.00,meteohub,2013-05-13 23:31:00,
2013-05-13 19:36:00,55.6,29.1,30.13,NE,45,4.0,13.0,36,0.00,,,0.00,meteohub,2013-05-13 23:36:00,
2013-05-13 19:41:00,55.4,29.5,30.13,East,90,2.0,13.0,37,0.00,,,0.00,meteohub,2013-05-13 23:41:00,
2013-05-13 19:46:00,55.0,30.6,30.13,North,0,4.0,13.0,39,0.00,,,0.00,meteohub,2013-05-13 23:46:00,
2013-05-13 19:51:00,54.7,31.5,30.14,South,180,4.0,5.0,41,0.00,,,0.00,meteohub,2013-05-13 23:51:00,
2013-05-13 19:56:00,54.3,31.6,30.14,SE,135,6.0,6.0,42,0.00,,,0.00,meteohub,2013-05-13 23:56:00,
2013-05-13 20:01:00,54.0,32.5,30.14,SE,135,4.0,6.0,44,0.00,,,0.00,meteohub,2013-05-14 00:01:00,
2013-05-13 20:06:00,53.6,32.2,30.15,WSW,248,4.0,6.0,44,0.00,,,0.00,meteohub,2013-05-14 00:06:00,
2013-05-13 20:11:00,53.2,33.1,30.15,East,90,4.0,8.0,46,0.00,,,0.00,meteohub,2013-05-14 00:11:00,
2013-05-13 20:16:00,53.1,33.4,30.17,North,0,13.0,13.0,47,0.00,,,0.00,meteohub,2013-05-14 00:16:00,
2013-05-13 20:21:00,52.9,34.7,30.17,North,0,5.0,13.0,50,0.00,,,0.00,meteohub,2013-05-14 00:21:00,
2013-05-13 20:26:00,52.5,35.4,30.16,SE,135,5.0,13.0,52,0.00,,,0.00,meteohub,2013-05-14 00:26:00,
2013-05-13 20:31:00,51.6,36.0,30.17,North,0,5.0,11.0,55,0.00,,,0.00,meteohub,2013-05-14 00:31:00,
2013-05-13 20:36:00,51.3,35.6,30.16,East,90,4.0,7.0,55,0.00,,,0.00,meteohub,2013-05-14 00:36:00,
2013-05-13 20:41:00,50.9,35.2,30.17,NW,315,3.0,7.0,55,0.00,,,0.00,meteohub,2013-05-14 00:41:00,
2013-05-13 20:46:00,50.5,35.1,30.17,SSE,158,2.0,8.0,55,0.00,,,0.00,meteohub,2013-05-14 00:46:00,
2013-05-13 20:51:00,50.5,35.1,30.17,SSE,158,2.0,8.0,55,0.00,,,0.00,meteohub,2013-05-14 00:51:00,
2013-05-13 20:56:00,50.0,35.4,30.17,North,0,8.0,8.0,57,0.00,,,0.00,meteohub,2013-05-14 00:56:00,
2013-05-13 21:01:00,50.0,34.9,30.17,NNE,23,3.0,8.0,56,0.00,,,0.00,meteohub,2013-05-14 01:01:00,
2013-05-13 21:06:00,49.8,35.6,30.17,South,180,4.0,8.0,58,0.00,,,0.00,meteohub,2013-05-14 01:06:00,
2013-05-13 21:11:00,49.6,36.0,30.17,SE,135,2.0,8.0,59,0.00,,,0.00,meteohub,2013-05-14 01:11:00,
2013-05-13 21:16:00,49.6,36.0,30.18,SE,135,3.0,4.0,59,0.00,,,0.00,meteohub,2013-05-14 01:16:00,
2013-05-13 21:21:00,49.6,36.0,30.18,SE,135,3.0,4.0,59,0.00,,,0.00,meteohub,2013-05-14 01:21:00,
2013-05-13 21:26:00,49.6,36.0,30.18,SE,135,3.0,4.0,59,0.00,,,0.00,meteohub,2013-05-14 01:26:00,
2013-05-13 22:42:00,44.1,36.0,30.22,South,180,2.0,-999.0,73,-99.99,,,0.00,meteohub,2013-05-14 02:42:00,
2013-05-13 22:47:00,44.1,36.0,30.22,South,180,2.0,2.0,73,0.00,,,0.00,meteohub,2013-05-14 02:47:00,
2013-05-13 22:52:00,44.1,36.0,30.22,South,180,2.0,2.0,73,0.00,,,0.00,meteohub,2013-05-14 02:52:00,
2013-05-13 22:57:00,43.9,35.8,30.22,West,270,2.0,2.0,73,0.00,,,0.00,meteohub,2013-05-14 02:57:00,
2013-05-13 23:02:00,43.9,35.8,30.22,West,270,2.0,2.0,73,0.00,,,0.00,meteohub,2013-05-14 03:02:00,
2013-05-13 23:07:00,43.9,35.8,30.22,West,270,2.0,2.0,73,0.00,,,0.00,meteohub,2013-05-14 03:07:00,
2013-05-13 23:12:00,43.5,35.8,30.22,North,0,4.0,4.0,74,0.00,,,0.00,meteohub,2013-05-14 03:12:00,
2013-05-13 23:17:00,44.2,36.1,30.23,NW,315,2.0,4.0,73,0.00,,,0.00,meteohub,2013-05-14 03:17:00,
2013-05-13 23:22:00,44.6,35.8,30.22,NE,45,0.0,4.0,71,0.00,,,0.00,meteohub,2013-05-14 03:22:00,
2013-05-13 23:27:00,44.4,36.0,30.22,NW,315,2.0,4.0,72,0.00,,,0.00,meteohub,2013-05-14 03:27:00,
2013-05-13 23:32:00,44.1,35.6,30.22,North,0,2.0,2.0,72,0.00,,,0.00,meteohub,2013-05-14 03:32:00,
2013-05-13 23:37:00,43.7,35.6,30.22,South,180,0.0,2.0,73,0.00,,,0.00,meteohub,2013-05-14 03:37:00,
2013-05-13 23:42:00,43.5,35.4,30.22,North,0,2.0,2.0,73,0.00,,,0.00,meteohub,2013-05-14 03:42:00,
2013-05-13 23:47:00,43.5,35.4,30.22,North,0,2.0,2.0,73,0.00,,,0.00,meteohub,2013-05-14 03:47:00,
2013-05-13 23:52:00,43.5,35.4,30.23,North,0,2.0,2.0,73,0.00,,,0.00,meteohub,2013-05-14 03:52:00,
2013-05-13 23:57:00,42.3,36.0,30.22,West,270,2.0,2.0,78,0.00,,,0.00,meteohub,2013-05-14 03:57:00,